Regional Weather Roundup
Issued by NWS

Home | Current Version | Previous Version | Text Only | Print | Product List | Glossary Off
Versions: 1 2 3 4 5 6 7 8 9 10 11 12 13 14 15 16 17 18 19 20 21 22 23 24 25 26 27 28 29 30 31 32 33 34 35 36 37 38 39 40 41 42 43 44 45 46 47 48 49 50

617
ASUS45 KBOU 202310
RWRCO

WEATHER ROUNDUP FOR COLORADO
NATIONAL WEATHER SERVICE DENVER/BOULDER CO
500 PM MDT SUN MAY 20 2018

NOTE: "FAIR" INDICATES FEW OR NO CLOUDS BELOW 12000 FEET WITH NO
SIGNIFICANT WEATHER AND/OR OBSTRUCTIONS TO VISIBILITY.

COZ001>005-013-030-031-210000-
...NORTHWEST COLORADO...

CITY           SKY/WX    TMP DP  RH WIND       PRES   REMARKS
CRAIG          FAIR      68  37  32 NE5       30.02F
HAYDEN         FAIR      61  41  47 SE14      30.07F
MEEKER         FAIR      68  36  30 SE5       30.01F
RANGELY        MOCLDY    71  26  18 SE13G24   29.95F
RABBIT EARS PA FAIR      43  32  65 NW6       30.26F
STEAMBOAT SPGS FAIR      57  37  47 E9        30.08F
WALDEN         FAIR      46  36  66 NW12      30.19S
$$

COZ006>008-011-210000-
...WEST CENTRAL VALLEYS...

CITY           SKY/WX    TMP DP  RH WIND       PRES   REMARKS
GRAND JUNCTION FAIR      65  44  46 SW15G24   30.01R
MONTROSE       FAIR      66  31  27 SE17      30.07F
EAGLE          FAIR      68  29  23 SW10      30.06S
RIFLE          FAIR      71  30  21 SE25G37   29.97R
DELTA          FAIR      72  32  22 NW6       30.03F
NUCLA          NOT AVBL
$$

COZ017>023-064>068-210000-
...SOUTHWEST COLORADO...

CITY           SKY/WX    TMP DP  RH WIND       PRES   REMARKS
DURANGO        FAIR      76   7   7 S17G25    30.01F
CORTEZ         FAIR      78   6   6 SW16G28   29.96S
PAGOSA SPRINGS PTSUNNY   68  15  13 S15G25    30.12S
TELLURIDE      PTSUNNY   58  25  28 E5        30.20F
WOLF CREEK PAS CLOUDY    36  27  69 CALM      30.41F
$$

COZ009-010-012-014-032>034-037-058>063-210000-
...CENTRAL COLORADO...

CITY           SKY/WX    TMP DP  RH WIND       PRES   REMARKS
ASPEN          CLOUDY    62  23  22 S18       30.15R
BUENA VISTA    CLOUDY    55  33  42 W17G26    30.18S
COPPER MTN     TSTM      37  32  81 CALM      30.38R
BERTHOUD PASS  CLOUDY    30  19  64 NW17      30.39R VSB<1/4 WCI  18
COTTONWOOD PAS PTSUNNY   52  34  50 W17G25    30.28S
GUNNISON       CLOUDY    54  34  46 SE12G22   30.23R
GRANBY         CLOUDY    57  31  37 SW13      30.18R
KREMMLING      FAIR      64  30  27 CALM      30.13F
LEADVILLE      CLOUDY    47  28  47 E5        30.24F
MONARCH PASS   SNOW      32  30  93 MISG      30.51R VSB 1/4
SALIDA         PTSUNNY   63  29  28 SW10      30.25R
SUNLIGHT       CLOUDY    41  30  65 SW15G29   30.33R
WILKERSON PASS CLOUDY    37  34  87 E5        30.38R
$$

COZ069>075-210000-
...SAN LUIS VALLEY/SANGRE DE CRISTO MOUNTAINS...

CITY           SKY/WX    TMP DP  RH WIND       PRES   REMARKS
ALAMOSA        PTSUNNY   62  26  25 NW13      30.14R
DEL NORTE      CLOUDY    57  32  39 N23G30    30.18R
LA VETA PASS   CLOUDY    39  36  87 N9G16     30.44R
SAGUACHE       NOT AVBL
$$

COZ035-036-038>040-210000-
...NORTHERN COLORADO FRONT RANGE...

CITY           SKY/WX    TMP DP  RH WIND       PRES   REMARKS
DENVER INTL AP CLOUDY    57  42  57 E7        30.16R
AURORA         CLOUDY    56  44  64 S12       30.17R
FRONT RANGE AP CLOUDY    59  45  58 E8        30.17R
ERIE MUNI ARPT LGT RAIN  53  46  77 W8        30.23R
BOULDER MUN AP LGT RAIN  50  46  87 SE3       30.17S
CENTENNIAL     CLOUDY    53  44  71 SW15      30.16R
BROOMFIELD     CLOUDY    52  46  82 W10       30.20R
FORT COLLINS   CLOUDY    53  44  71 S8        30.15F
LONGMONT       LGT RAIN  56  45  66 S5        30.19R
$$

COZ041-046-047-076>085-087-088-210000-
...PIKES PEAK/PALMER DIVIDE AND SOUTHERN FOOTHILLS...

CITY           SKY/WX    TMP DP  RH WIND       PRES   REMARKS
COLO. SPRINGS  CLOUDY    57  42  57 S8        30.19R
A. F. ACADEMY  CLOUDY    52  43  72 N7        30.20R
SCHRIEVER AFB  NOT AVBL
CHEYENNE MTN   PTSUNNY   50  44  79 SE6       30.15R
ELLICOTT         N/A    N/A N/A N/A SW8       30.18R
FALCON         CLOUDY    53  38  57 SE3G9     30.23R
FORT CARSON    FAIR      58  41  54 S9        30.16R
LIMON          PTSUNNY   60  40  47 S7        30.14S
MONUMENT HILL  CLOUDY    46  41  81 S5        30.24R
CANON CITY     CLOUDY    55  50  82 N10       30.15R
WALSENBURG     CLOUDY    57  46  67 NE7       30.14F
TRINIDAD       FAIR      63  47  55 NE10      30.13F
$$

COZ042>045-048>051-090-091-210000-
...NORTHEAST COLORADO...

CITY           SKY/WX    TMP DP  RH WIND       PRES   REMARKS
GREELEY ARPT   CLOUDY    57  43  59 CALM      30.17R
AKRON          CLOUDY    56  44  64 E9        30.14S
BURLINGTON     PTSUNNY   60  45  57 E7        30.13S
WRAY           PTSUNNY   59  46  63 SE7       30.14S
YUMA           CLOUDY    55  28  35 E7        30.13F
STERLING       CLOUDY    61  43  51 S9        30.12S
HOLYOKE        PTSUNNY   61  46  59 SE10      30.14S
FORT MORGAN    CLOUDY    60  40  48 SE7       30.15R
$$

COZ086-089-092>099-210000-
...SOUTHEAST COLORADO...

CITY           SKY/WX    TMP DP  RH WIND       PRES   REMARKS
PUEBLO         PTSUNNY   65  42  43 SE8       30.12R
LA JUNTA       FAIR      67  43  41 SE10      30.09S
LAMAR          FAIR      69  43  38 E9        30.07F
SPRINGFIELD      N/A     69  44  40 SE12G20   30.10S
$$




USA.gov is the U.S. government's official web portal to all federal, state and local government web resources and services.